Wind_Speed
19 16 14 19 22 23 25 28 30 30 27 22 24 29 22 17 25 30 46 47 47 46 46 50 51 60 57 49 52 50 49 44 44 42 43 43 42 40 38 40 35 31 33 31
24 15 18 19 22 25 27 29 31 31 29 33 34 34 30 25 26 37 44 39 44 42 33 38 44 51 60 49 50 47 50 50 48 47 49 49 48 47 45 40 47 43 36 34
28 18 23 23 22 24 27 29 28 33 34 34 40 43 40 38 43 48 48 41 40 44 33 34 38 47 56 59 48 51 48 51 52 55 54 55 56 51 49 48 43 42 43 42
33 24 25 25 23 19 27 24 25 29 31 36 32 45 46 45 44 44 43 33 37 39 45 38 41 48 56 59 55 47 52 56 58 56 60 59 62 62 55 52 43 43 44 44
33 32 29 27 27 26 33 32 29 26 33 35 32 38 39 40 41 40 36 27 17 32 43 47 51 54 53 55 57 53 49 51 58 50 55 62 57 69 63 58 53 53 53 50
37 33 35 33 32 30 30 32 34 37 39 44 37 36 36 34 35 36 34 29 30 23 19 29 45 58 56 51 50 49 51 50 53 50 53 62 54 52 68 59 59 58 59 57
41 39 32 29 36 36 36 36 36 38 38 45 34 35 34 21 20 25 31 32 33 31 30 42 36 45 46 46 49 50 51 52 54 54 53 48 53 52 47 51 55 66 64 52
41 43 30 37 38 41 39 41 38 40 47 45 32 32 18 25 25 23 16 32 37 31 29 36 38 38 45 51 54 57 58 58 58 54 52 50 49 48 53 47 49 48 36 39
47 48 32 39 39 41 41 43 45 51 49 45 42 39 30 36 33 36 30 38 40 38 33 38 43 43 48 49 53 53 57 61 53 55 57 54 51 51 49 43 39 49 51 42
49 49 40 39 41 44 47 42 51 49 51 51 49 42 40 40 40 32 38 41 42 49 49 48 45 51 56 56 52 56 70 57 51 58 52 44 47 45 39 42 40 47 42 38
44 47 48 45 40 43 44 52 45 45 47 46 51 47 46 43 46 45 44 45 43 46 58 63 59 56 54 57 57 60 64 57 59 66 56 49 54 54 46 46 43 38 30 26
44 43 43 43 46 43 43 49 53 58 61 59 54 54 53 50 51 49 53 54 55 55 54 65 66 66 65 64 62 63 66 64 65 58 54 45 56 61 51 47 49 37 23 26
35 37 39 37 41 46 46 50 58 64 67 66 66 65 66 64 63 63 62 57 57 55 66 46 68 61 61 66 63 62 66 66 72 67 63 53 53 37 44 35 37 29 23 23
38 40 42 44 47 45 43 48 51 62 68 71 71 72 68 65 63 65 67 59 69 61 52 75 70 57 64 64 67 64 63 64 70 67 64 56 45 53 46 39 36 28 27 32
36 34 34 37 36 37 36 43 46 55 62 69 71 71 70 63 68 64 63 69 73 77 62 55 44 51 42 49 55 52 60 57 61 64 62 55 44 47 45 44 44 39 37 36
25 26 25 22 21 25 27 26 37 49 45 44 61 66 65 63 57 70 73 67 66 79 81 71 49 53 68 67 56 46 46 49 50 52 55 54 52 48 58 45 54 45 45 42
9 12 16 17 21 22 20 15 14 18 30 37 43 43 51 57 51 58 61 71 79 70 64 65 57 36 52 59 56 48 49 47 46 46 48 52 52 58 61 51 54 35 37 35
4 6 10 10 10 8 8 12 14 16 13 23 29 34 41 47 44 44 50 55 66 81 87 77 60 63 58 45 45 44 55 52 54 51 49 50 54 57 61 58 46 33 31 27
7 9 11 9 9 7 5 16 15 18 15 27 27 28 31 34 37 51 55 55 58 63 66 73 84 83 75 77 63 49 48 49 52 54 52 51 54 57 53 49 42 46 40 36
4 6 4 9 14 9 13 15 20 23 26 26 28 31 27 28 34 41 42 44 53 56 58 62 70 77 76 72 62 58 61 60 57 54 49 51 53 57 58 56 50 43 42 43
10 10 11 13 18 18 19 18 17 25 28 29 31 34 34 34 39 42 42 46 47 46 48 52 59 62 63 63 68 74 63 72 67 64 57 56 55 57 60 59 56 50 50 46
11 13 10 11 16 21 23 26 30 32 35 40 38 37 40 41 40 41 46 47 49 50 47 48 48 46 44 44 49 64 81 73 68 63 58 56 57 55 56 60 59 56 54 49
10 12 13 16 15 19 23 27 28 31 31 28 34 35 34 35 38 42 48 53 57 53 50 49 47 46 43 43 41 47 56 53 68 66 63 60 57 59 57 57 59 59 57 51
12 14 14 15 21 20 24 25 29 32 32 32 33 34 37 39 40 41 46 47 55 62 61 59 52 45 41 38 35 38 45 46 50 57 60 57 59 59 59 58 58 57 56 52
12 13 15 18 19 20 27 30 29 30 32 32 32 33 33 35 38 41 37 38 39 42 50 48 50 43 45 43 38 35 37 43 49 53 54 59 58 62 62 61 60 58 55 53
10 14 16 19 25 27 28 29 31 31 33 31 33 29 32 35 34 29 26 26 27 29 34 35 39 47 44 43 40 36 34 34 41 47 54 53 60 61 62 64 61 58 55 54
Wind_Direction
275 271 277 272 272 264 259 256 254 251 241 226 233 248 247 265 267 262 243 239 241 242 245 246 252 254 253 243 250 246 248 239 238 244 251 255 257 252 252 250 251 254 255 263
272 271 263 258 262 265 259 257 256 259 254 249 241 237 231 221 231 248 257 241 236 242 245 248 250 258 257 246 241 243 245 245 245 242 247 253 254 253 253 256 253 249 254 257
268 255 247 253 252 256 262 258 257 257 256 249 240 254 256 246 235 239 256 262 253 233 226 234 241 249 256 258 246 248 251 246 245 247 247 251 256 256 257 263 262 247 241 249
260 249 250 254 252 265 268 265 262 264 258 256 250 252 248 251 251 257 263 261 258 253 233 228 235 243 254 262 263 251 246 251 247 251 251 255 261 260 256 259 253 235 242 252
260 253 242 234 230 228 249 268 268 265 267 261 258 258 255 250 252 254 257 254 242 253 252 234 230 241 257 260 263 266 260 254 258 260 263 253 264 260 254 256 252 240 247 253
261 253 254 248 235 227 238 251 263 263 259 258 254 261 261 259 255 252 253 242 248 245 246 246 239 240 248 253 258 261 261 259 257 260 259 257 270 262 253 253 260 254 250 251
251 250 243 246 251 244 233 235 251 254 251 259 263 262 271 275 285 272 249 234 240 243 238 243 237 232 245 246 252 257 259 259 258 255 254 257 262 256 253 262 265 267 250 249
256 253 250 237 236 240 224 229 241 253 255 267 263 260 270 268 260 239 263 239 233 255 264 245 246 241 249 254 249 252 253 249 250 255 258 255 252 253 247 259 260 258 257 265
262 260 246 236 236 243 240 234 232 240 243 249 245 240 230 233 236 252 235 241 235 232 231 238 243 243 250 248 242 247 249 238 248 232 250 249 250 246 248 252 258 261 264 277
265 262 256 240 244 248 250 247 235 233 241 242 240 244 246 232 229 240 248 238 237 231 232 227 227 232 236 247 252 253 257 264 254 247 225 228 237 239 245 254 258 262 256 255
264 261 256 253 244 244 247 250 248 244 240 239 237 242 252 245 238 230 238 250 235 232 232 230 230 235 231 242 251 254 261 254 252 260 264 255 238 233 231 245 253 257 252 270
269 266 261 253 254 249 244 243 247 251 252 254 251 250 249 246 248 239 241 246 252 240 241 239 230 228 228 234 247 255 260 263 259 258 249 259 265 239 224 229 236 246 246 256
270 271 271 262 259 262 256 243 242 245 247 245 252 251 248 250 254 250 244 241 247 246 241 229 226 229 233 238 235 244 252 254 256 258 258 254 242 239 237 232 226 223 223 246
284 281 279 276 271 271 265 261 245 241 244 245 247 249 247 249 249 248 244 243 239 244 248 250 250 250 231 234 241 241 243 250 258 261 263 264 260 259 267 277 242 248 222 233
285 287 283 278 278 273 258 248 238 232 236 241 244 244 249 243 244 245 248 252 248 251 257 259 250 247 238 241 232 239 241 243 249 255 260 263 259 257 267 257 252 241 230 230
291 294 298 298 289 284 277 272 251 243 241 244 244 248 246 247 243 246 244 249 247 249 248 249 250 239 250 257 237 234 244 246 247 251 257 254 254 250 254 246 259 228 219 225
312 304 305 313 295 298 294 285 263 255 254 258 261 260 251 247 243 241 249 252 253 248 246 248 239 239 232 235 237 240 237 242 245 249 248 253 250 248 250 254 277 280 225 224
355 338 316 307 309 333 301 279 256 270 259 261 257 260 253 248 247 243 243 250 257 259 258 247 238 246 246 237 233 237 237 240 241 240 244 244 250 253 259 264 268 245 265 263
271 287 288 301 331 346 328 273 266 253 253 264 255 260 271 260 254 253 259 258 262 262 264 260 255 245 248 249 249 243 240 227 237 238 239 243 245 249 255 262 260 256 257 253
312 321 309 308 306 306 288 293 295 278 267 271 280 274 263 265 262 256 246 250 251 255 259 261 259 255 252 251 250 250 240 240 233 237 237 246 248 249 253 256 257 257 255 256
315 316 315 305 302 309 302 291 279 272 285 280 277 273 272 270 265 259 258 248 242 250 254 259 262 263 263 263 261 241 233 236 230 230 239 245 247 249 251 254 257 258 258 257
302 293 281 289 292 296 289 295 288 281 278 283 283 278 271 266 262 262 258 256 254 254 255 258 261 265 262 252 254 253 249 239 225 227 231 236 244 248 252 254 254 255 257 256
302 300 295 294 297 298 310 304 305 301 298 288 283 282 278 272 272 267 257 258 254 255 249 258 261 258 259 255 248 250 252 251 250 242 229 234 237 244 248 253 255 255 255 254
312 307 304 298 295 302 301 306 309 308 305 300 294 288 283 282 278 276 270 263 257 251 253 257 256 256 256 255 250 243 243 241 240 245 250 249 241 236 241 248 253 254 254 254
321 327 324 312 313 310 311 313 318 315 311 307 303 299 295 292 286 288 280 267 259 252 248 254 254 247 249 252 251 244 236 234 237 238 239 237 239 238 238 241 245 250 253 254
335 324 324 315 318 325 323 320 318 320 319 308 306 303 307 307 304 290 285 271 254 249 250 253 249 235 239 245 246 246 241 238 238 235 236 239 237 237 234 236 240 244 247 248
Height
5808 5809 5810 5810 5810 5810 5810 5811 5812 5815 5820 5818 5819 5819 5822 5828 5829 5831 5835 5841 5844 5847 5852 5854 5852 5854 5860 5867 5869 5874 5876 5881 5881 5885 5888 5892 5892 5897 5900 5903 5903 5907 5906 5909
5802 5804 5803 5802 5803 5804 5804 5804 5805 5809 5812 5812 5813 5812 5815 5819 5822 5825 5824 5829 5833 5838 5841 5845 5842 5841 5846 5857 5863 5865 5870 5876 5877 5880 5882 5884 5884 5888 5892 5894 5894 5899 5899 5901
5794 5799 5796 5794 5795 5796 5797 5797 5799 5800 5801 5804 5803 5803 5808 5812 5813 5814 5817 5824 5827 5828 5831 5835 5837 5833 5837 5841 5854 5860 5864 5865 5870 5871 5874 5876 5876 5880 5885 5887 5886 5887 5889 5891
5785 5789 5787 5786 5787 5790 5789 5792 5792 5791 5792 5791 5797 5793 5799 5803 5806 5808 5809 5815 5816 5821 5823 5827 5827 5827 5828 5831 5838 5848 5852 5853 5859 5866 5866 5869 5871 5873 5878 5876 5879 5880 5879 5880
5779 5778 5779 5778 5781 5785 5784 5786 5785 5785 5782 5783 5786 5785 5789 5793 5795 5799 5803 5805 5807 5812 5816 5819 5817 5818 5823 5825 5828 5834 5841 5846 5851 5856 5859 5862 5864 5865 5869 5869 5870 5871 5870 5872
5768 5771 5769 5770 5770 5772 5775 5777 5777 5776 5775 5770 5777 5779 5779 5785 5789 5791 5793 5796 5796 5800 5805 5808 5810 5811 5814 5817 5819 5822 5828 5835 5839 5844 5848 5850 5854 5853 5858 5861 5861 5862 5861 5862
5756 5757 5761 5762 5760 5761 5765 5767 5764 5763 5762 5760 5770 5769 5772 5780 5783 5784 5786 5788 5791 5791 5793 5794 5799 5798 5804 5809 5812 5813 5817 5821 5826 5830 5833 5836 5838 5841 5844 5849 5849 5850 5850 5852
5746 5749 5753 5750 5745 5746 5753 5754 5754 5751 5753 5755 5761 5759 5768 5770 5769 5768 5777 5780 5784 5788 5790 5789 5791 5793 5794 5797 5798 5799 5802 5804 5807 5812 5817 5821 5824 5830 5838 5841 5841 5841 5844 5847
5734 5737 5746 5740 5741 5741 5745 5745 5745 5739 5741 5743 5747 5750 5756 5755 5759 5760 5761 5763 5768 5773 5775 5777 5782 5784 5783 5783 5785 5788 5785 5788 5794 5796 5796 5799 5808 5819 5827 5828 5829 5830 5835 5839
5722 5724 5730 5732 5735 5735 5728 5734 5732 5729 5729 5731 5733 5738 5742 5747 5750 5752 5752 5751 5756 5759 5762 5757 5763 5765 5765 5768 5773 5773 5768 5768 5769 5775 5778 5788 5795 5804 5810 5814 5820 5826 5825 5830
5710 5710 5713 5716 5718 5721 5724 5722 5721 5720 5719 5718 5721 5728 5732 5736 5741 5742 5741 5742 5745 5746 5746 5746 5752 5750 5755 5753 5757 5760 5758 5764 5769 5770 5777 5780 5782 5791 5794 5804 5809 5815 5816 5819
5695 5695 5695 5699 5701 5705 5706 5709 5708 5704 5710 5709 5708 5714 5718 5723 5726 5728 5730 5730 5732 5733 5733 5737 5741 5736 5740 5746 5744 5744 5744 5747 5751 5757 5768 5774 5776 5778 5780 5790 5796 5803 5805 5814
5683 5683 5682 5686 5689 5685 5687 5690 5691 5691 5692 5697 5695 5704 5705 5705 5708 5711 5713 5716 5716 5719 5719 5705 5720 5732 5738 5739 5741 5740 5737 5738 5740 5748 5756 5768 5770 5739 5749 5769 5774 5788 5795 5804
5671 5671 5670 5669 5668 5668 5668 5668 5672 5673 5674 5677 5678 5683 5688 5687 5690 5691 5695 5695 5701 5702 5699 5704 5711 5720 5726 5730 5732 5736 5734 5731 5725 5733 5743 5755 5763 5760 5764 5769 5774 5781 5786 5798
5659 5658 5656 5654 5653 5651 5654 5654 5653 5652 5655 5655 5662 5664 5671 5672 5672 5676 5678 5679 5679 5678 5684 5690 5693 5703 5711 5718 5726 5727 5726 5724 5723 5726 5730 5738 5752 5755 5757 5759 5760 5763 5771 5778
5648 5646 5644 5645 5645 5643 5641 5642 5644 5646 5647 5646 5648 5649 5658 5658 5658 5662 5664 5661 5664 5664 5671 5681 5684 5687 5698 5705 5715 5717 5717 5715 5717 5722 5725 5735 5738 5746 5738 5744 5740 5746 5752 5761
5644 5643 5641 5639 5637 5636 5637 5635 5634 5635 5637 5638 5637 5639 5645 5643 5645 5647 5646 5645 5646 5650 5653 5659 5677 5680 5687 5695 5702 5707 5706 5702 5706 5711 5719 5720 5726 5731 5721 5720 5728 5744 5746 5754
5641 5640 5638 5637 5636 5635 5633 5632 5629 5628 5631 5628 5628 5629 5627 5630 5634 5636 5634 5635 5635 5636 5638 5646 5661 5672 5677 5679 5684 5691 5695 5694 5692 5699 5707 5714 5714 5716 5718 5722 5729 5738 5742 5748
5638 5637 5636 5633 5633 5634 5630 5624 5624 5624 5627 5621 5621 5622 5623 5622 5622 5624 5624 5627 5627 5628 5627 5630 5638 5651 5661 5665 5670 5673 5683 5684 5682 5686 5695 5699 5706 5708 5711 5716 5724 5730 5736 5741
5635 5633 5632 5630 5628 5627 5626 5628 5623 5620 5619 5618 5616 5616 5616 5615 5613 5614 5616 5618 5619 5617 5617 5620 5622 5628 5638 5648 5655 5658 5664 5672 5676 5675 5681 5685 5690 5697 5701 5705 5710 5715 5721 5727
5630 5629 5628 5626 5623 5622 5620 5620 5620 5616 5615 5611 5608 5607 5607 5605 5603 5605 5606 5607 5608 5607 5607 5608 5609 5614 5621 5627 5629 5640 5644 5653 5661 5663 5670 5669 5675 5680 5687 5692 5696 5702 5707 5714
5628 5626 5624 5623 5620 5618 5613 5613 5610 5608 5606 5599 5598 5596 5593 5592 5592 5591 5589 5589 5592 5593 5595 5597 5598 5599 5602 5609 5614 5620 5628 5636 5642 5650 5657 5658 5663 5667 5672 5679 5685 5690 5694 5702
5625 5623 5621 5619 5617 5613 5609 5603 5601 5595 5592 5591 5586 5584 5581 5579 5578 5577 5577 5574 5574 5577 5579 5582 5584 5588 5591 5595 5601 5604 5612 5618 5625 5631 5639 5646 5653 5658 5662 5667 5671 5677 5683 5690
5620 5618 5617 5615 5611 5609 5604 5600 5595 5589 5584 5580 5576 5573 5569 5566 5564 5561 5557 5557 5556 5558 5562 5565 5570 5576 5580 5582 5586 5590 5595 5602 5607 5614 5622 5630 5640 5646 5651 5656 5659 5664 5670 5677
5617 5614 5613 5610 5607 5605 5598 5592 5587 5583 5577 5571 5567 5562 5557 5552 5549 5543 5538 5538 5539 5541 5547 5552 5555 5563 5566 5568 5571 5575 5580 5586 5592 5599 5607 5614 5621 5630 5638 5645 5650 5654 5659 5664
5614 5612 5609 5607 5601 5596 5592 5587 5581 5575 5569 5563 5557 5554 5547 5540 5534 5529 5527 5526 5526 5530 5534 5537 5539 5544 5550 5554 5558 5563 5570 5576 5580 5585 5592 5599 5607 5614 5622 5630 5637 5645 5650 5656